sat.trackr.live / text

‹ back to catalog

STARLINK-36892

NORAD 67944 · 2026-037N

PAYLOAD ACTIVE UNKNOWN

§ Identity

Operator
Country
US
Launch date
2026-02-24
Launch site
AFETR
Launch vehicle
Mass (kg)
RCS (m²)

Purposes: comms

External: N2YO · Heavens-Above · Gunter

§ Orbital elements

Epoch: 2026-09-19T04:13:10.682976Z

Period
94.27 min
Inclination
43.0002°
Eccentricity
0.0001511
Mean motion
15.27587919 rev/d
Perigee alt
482.0 km
Apogee alt
484.1 km
Semi-major
6,861.2 km
B*
5.0082e-4
RAAN
177.8609°
Arg perigee
271.4181°
Mean anomaly
88.6498°
Rev number
3,293

§ Raw data

STARLINK-368921 67944U 26037N   26262.17581809  .00013548  00000+0  50082-3 0  99932 67944  43.0002 177.8609 0001511 271.4181  88.6498 15.27587919 32935

JSON: /api/v1/satellites/67944 · /tle

For live sub-satellite position, see the globe view (requires WebGL).

§ Visibility from observer

Set your observer location to see the next 7 days of passes ≥ 10°. The values pass through the URL so the page stays shareable.

No JS? Fill the form by hand. The geolocation button needs JavaScript.